Location: Kelshall
(52.0000°N, 0.0500°W)
Time: 14:38:50
(UTC+00:00)

USA 238 - Pass Details

Date: 18 September 2020
Orbit: 1006 x 1206 km, 63.4° (Epoch: 25 October)

Event Time Altitude Azimuth Distance (km) Brightness Sun altitude
Rises 19:30:16 0° 313° (NW) 3,917 8.0 -13.3°
Reaches altitude 10° 19:32:53 10° 314° (NW) 2,986 7.2 -13.7°
Maximum altitude 19:40:04 87° 45° (NE) 1,160 3.8 -14.8°
Enters shadow 19:45:44 19° 134° (SE) 2,482 5.1 -15.6°
